TimeMST,TemperatureF,Dew PointF,Humidity,Sea Level PressureIn,VisibilityMPH,Wind Direction,Wind SpeedMPH,Gust SpeedMPH,PrecipitationIn,Events,Conditions,WindDirDegrees,DateUTC
12:15 AM,48.2,41.0,76,30.11,10.0,South,17.3,25.3,N/A,,Clear,190,2012-10-23 07:15:00
12:35 AM,48.2,41.0,76,30.11,10.0,South,16.1,26.5,N/A,,Clear,190,2012-10-23 07:35:00
12:55 AM,48.2,41.0,76,30.11,10.0,South,17.3,24.2,N/A,,Clear,190,2012-10-23 07:55:00
1:15 AM,48.2,41.0,76,30.10,10.0,South,20.7,29.9,N/A,,Clear,190,2012-10-23 08:15:00
1:35 AM,48.2,41.0,76,30.10,10.0,South,19.6,31.1,N/A,,Clear,190,2012-10-23 08:35:00
2:15 AM,48.2,39.2,71,30.10,10.0,SSW,19.6,31.1,N/A,,Clear,200,2012-10-23 09:15:00
2:35 AM,48.2,39.2,71,30.10,10.0,SSW,19.6,27.6,N/A,,Clear,200,2012-10-23 09:35:00
2:55 AM,48.2,41.0,76,30.10,10.0,South,18.4,27.6,N/A,,Clear,190,2012-10-23 09:55:00
3:15 AM,46.4,41.0,81,30.10,10.0,SSW,19.6,24.2,N/A,,Clear,200,2012-10-23 10:15:00
4:15 AM,48.2,35.6,62,30.09,10.0,South,20.7,27.6,N/A,,Clear,190,2012-10-23 11:15:00
4:35 AM,48.2,33.8,58,30.09,10.0,South,16.1,26.5,N/A,,Clear,190,2012-10-23 11:35:00
4:55 AM,48.2,33.8,58,30.07,10.0,South,15.0,27.6,N/A,,Clear,180,2012-10-23 11:55:00
5:15 AM,48.2,32.0,54,30.08,10.0,South,17.3,24.2,N/A,,Clear,180,2012-10-23 12:15:00
5:35 AM,48.2,32.0,54,30.09,10.0,South,17.3,26.5,N/A,,Clear,190,2012-10-23 12:35:00
5:55 AM,48.2,33.8,58,30.09,10.0,South,16.1,20.7,N/A,,Clear,180,2012-10-23 12:55:00
6:15 AM,46.4,32.0,57,30.10,10.0,South,15.0,-,N/A,,Clear,180,2012-10-23 13:15:00
6:35 AM,48.2,32.0,54,30.11,10.0,South,9.2,23.0,N/A,,Clear,170,2012-10-23 13:35:00
6:55 AM,44.6,37.4,76,30.12,10.0,SE,8.1,-,N/A,,Clear,130,2012-10-23 13:55:00
7:15 AM,42.8,39.2,87,30.12,10.0,SE,10.4,-,N/A,,Clear,140,2012-10-23 14:15:00
7:35 AM,44.6,39.2,81,30.12,10.0,SE,10.4,-,N/A,,Clear,130,2012-10-23 14:35:00
7:55 AM,48.2,39.2,71,30.13,10.0,SE,9.2,-,N/A,,Clear,140,2012-10-23 14:55:00
8:15 AM,50.0,37.4,62,30.13,10.0,SSE,9.2,-,N/A,,Clear,150,2012-10-23 15:15:00
8:35 AM,51.8,33.8,50,30.14,10.0,South,16.1,23.0,N/A,,Clear,180,2012-10-23 15:35:00
8:55 AM,53.6,35.6,51,30.15,10.0,SSW,9.2,-,N/A,,Clear,210,2012-10-23 15:55:00
9:35 AM,53.6,37.4,54,30.15,10.0,SSW,13.8,20.7,N/A,,Clear,200,2012-10-23 16:35:00
9:55 AM,55.4,37.4,51,30.15,10.0,South,16.1,23.0,N/A,,Clear,190,2012-10-23 16:55:00
10:15 AM,55.4,37.4,51,30.15,10.0,SW,17.3,25.3,N/A,,Clear,230,2012-10-23 17:15:00
10:35 AM,55.4,35.6,47,30.15,10.0,SSW,18.4,24.2,N/A,,Clear,200,2012-10-23 17:35:00
10:55 AM,57.2,37.4,48,30.14,10.0,SW,17.3,25.3,N/A,,Clear,220,2012-10-23 17:55:00
11:15 AM,57.2,37.4,48,30.14,10.0,SW,16.1,27.6,N/A,,Clear,220,2012-10-23 18:15:00
11:35 AM,57.2,37.4,48,30.14,10.0,SSW,16.1,24.2,N/A,,Clear,200,2012-10-23 18:35:00
11:55 AM,59.0,35.6,42,30.13,10.0,South,16.1,25.3,N/A,,Clear,180,2012-10-23 18:55:00
12:15 PM,59.0,37.4,45,30.13,10.0,South,17.3,25.3,N/A,,Clear,190,2012-10-23 19:15:00
12:35 PM,60.8,35.6,39,30.11,10.0,South,23.0,27.6,N/A,,Clear,190,2012-10-23 19:35:00
12:55 PM,60.8,33.8,36,30.10,10.0,South,18.4,24.2,N/A,,Clear,190,2012-10-23 19:55:00
1:15 PM,62.6,32.0,32,30.09,10.0,South,23.0,31.1,N/A,,Clear,190,2012-10-23 20:15:00
1:35 PM,62.6,32.0,32,30.08,10.0,South,17.3,26.5,N/A,,Clear,180,2012-10-23 20:35:00
1:55 PM,62.6,28.4,27,30.07,10.0,SSW,25.3,33.4,N/A,,Clear,200,2012-10-23 20:55:00
2:15 PM,62.6,28.4,27,30.07,10.0,SSW,20.7,31.1,N/A,,Clear,210,2012-10-23 21:15:00
2:35 PM,62.6,32.0,32,30.06,10.0,SSW,16.1,28.8,N/A,,Clear,210,2012-10-23 21:35:00
2:55 PM,62.6,26.6,26,30.06,10.0,SSW,21.9,31.1,N/A,,Clear,210,2012-10-23 21:55:00
3:15 PM,62.6,28.4,27,30.06,10.0,South,21.9,32.2,N/A,,Clear,180,2012-10-23 22:15:00
3:35 PM,62.6,24.8,24,30.07,10.0,SW,23.0,32.2,N/A,,Clear,220,2012-10-23 22:35:00
3:55 PM,62.6,28.4,27,30.06,10.0,SSW,20.7,28.8,N/A,,Clear,210,2012-10-23 22:55:00
4:15 PM,60.8,24.8,25,30.06,10.0,SSW,20.7,27.6,N/A,,Clear,210,2012-10-23 23:15:00
4:35 PM,59.0,32.0,36,30.06,10.0,SSW,21.9,32.2,N/A,,Clear,200,2012-10-23 23:35:00
4:55 PM,57.2,32.0,38,30.06,10.0,SSW,17.3,28.8,N/A,,Clear,200,2012-10-23 23:55:00
5:15 PM,57.2,32.0,38,30.07,10.0,SSW,16.1,25.3,N/A,,Clear,210,2012-10-24 00:15:00
5:35 PM,55.4,35.6,47,30.08,10.0,SSW,12.7,17.3,N/A,,Clear,200,2012-10-24 00:35:00
5:55 PM,53.6,35.6,51,30.07,10.0,SSW,13.8,19.6,N/A,,Clear,200,2012-10-24 00:55:00
6:15 PM,53.6,35.6,51,30.08,10.0,SSW,10.4,21.9,N/A,,Clear,210,2012-10-24 01:15:00
6:35 PM,51.8,35.6,54,30.09,10.0,South,13.8,18.4,N/A,,Clear,190,2012-10-24 01:35:00
6:55 PM,51.8,37.4,58,30.09,10.0,SSW,12.7,16.1,N/A,,Clear,200,2012-10-24 01:55:00
7:15 PM,50.0,35.6,58,30.10,10.0,SSW,10.4,-,N/A,,Clear,210,2012-10-24 02:15:00
7:35 PM,50.0,35.6,58,30.10,10.0,South,12.7,17.3,N/A,,Clear,170,2012-10-24 02:35:00
8:15 PM,50.0,37.4,62,30.10,10.0,South,9.2,18.4,N/A,,Clear,170,2012-10-24 03:15:00
8:35 PM,48.2,37.4,66,30.10,10.0,SSE,8.1,-,N/A,,Clear,160,2012-10-24 03:35:00
8:55 PM,46.4,37.4,71,30.10,10.0,SSE,5.8,-,N/A,,Clear,150,2012-10-24 03:55:00
9:15 PM,46.4,37.4,71,30.11,10.0,SE,8.1,-,N/A,,Clear,130,2012-10-24 04:15:00
9:35 PM,46.4,37.4,71,30.11,10.0,SE,5.8,-,N/A,,Clear,130,2012-10-24 04:35:00
9:55 PM,46.4,37.4,71,30.11,10.0,SSE,4.6,-,N/A,,Clear,160,2012-10-24 04:55:00
10:15 PM,46.4,39.2,76,30.10,10.0,South,6.9,-,N/A,,Clear,170,2012-10-24 05:15:00
10:35 PM,44.6,39.2,81,30.10,10.0,SSE,6.9,-,N/A,,Clear,160,2012-10-24 05:35:00
10:55 PM,44.6,39.2,81,30.10,10.0,SSE,8.1,-,N/A,,Clear,150,2012-10-24 05:55:00
11:15 PM,44.6,39.2,81,30.09,10.0,South,8.1,-,N/A,,Clear,170,2012-10-24 06:15:00
11:35 PM,46.4,39.2,76,30.08,10.0,SSE,11.5,-,N/A,,Clear,150,2012-10-24 06:35:00
11:55 PM,46.4,39.2,76,30.08,10.0,SE,8.1,-,N/A,,Clear,130,2012-10-24 06:55:00